Location: Le Petit-Vavre
(46.5081°N, 1.5239°E)
Time: 18:46:32
(UTC+00:00)

Cosmos 2219 Rocket - Pass Details

Date: 03 March 2021
Orbit: 826 x 848 km, 71.0° (Epoch: 14 April)

Event Time Altitude Azimuth Distance (km) Brightness Sun altitude
Rises 21:07:20 0° 234° (SW) 3,359 5.6 -34.7°
Reaches altitude 10° 21:09:59 10° 243° (WSW) 2,431 4.9 -35.1°
Maximum altitude 21:15:01 34° 308° (NW) 1,345 3.6 -35.8°
Drops below altitude 10° 21:20:06 10° 13° (NNE) 2,454 4.8 -36.5°
Sets 21:22:48 0° 22° (NNE) 3,396 5.5 -36.9°
